Regional Weather Roundup
Issued by NWS Midland/Odessa, TX

Skip options and go directly to product.
Home | Oldest Version | Next Version | Current Version | All | Text Only | Save Text | Print | Product List | Glossary On

Skip product version selection by date and time.   
732
ASUS44 KMAF 291601
RWRMAF
MIDLAND AREA WEATHER ROUNDUP
NATIONAL WEATHER SERVICE MIDLAND TX
1100 AM CDT FRI MAY 29 2015

...IN SOUTHWEST TEXAS AND SOUTHEAST NEW MEXICO...

CITY           SKY/WX    TMP DP  RH WIND       PRES   REMARKS
ALPINE         SUNNY     82  51  34 SW13      30.12S
ANDREWS        PTSUNNY   69  59  70 E7        30.04S
ARTESIA        SUNNY     72  52  49 N7G14     30.07S
BIG SPRING     SUNNY     74  59  59 E3        30.03F
CARLSBAD       SUNNY     73  54  51 N10       30.04F
DRYDEN           N/A     72  65  78 S8        29.97F
FORT STOCKTON  SUNNY     71  61  70 W8        30.01R
GUAD PASS      SUNNY     71  51  49 E21       30.13S
HOBBS          SUNNY     72  54  53 NE6       30.06F
MARFA          SUNNY    N/A N/A N/A SW7       30.12F
MIDLAND AIRPK  SUNNY     71  59  65 NE3       30.03R
MIDLAND INTL   SUNNY     72  59  63 VRB5      30.01S
ODESSA         SUNNY     71  59  65 E5        30.02S
PECOS          SUNNY     69  57  65 N7        30.02R
PRESIDIO       FAIR      83  57  41 SE6G16    29.99S
SEMINOLE       SUNNY     72  60  66 E3        30.06S
SNYDER         MOSUNNY   70  61  72 S8        30.02S
WINK           SUNNY     75  59  57 NE5       29.99S
$$
...OTHER STATIONS IN TEXAS...

CITY           SKY/WX    TMP DP  RH WIND       PRES   REMARKS
ABILENE        CLOUDY    69  62  78 S6        30.01R
AMARILLO       SUNNY     67  57  70 N12       30.08S
AUSTIN         MOSUNNY   74  65  73 VRB6      29.98F
BROWNSVILLE    TSTM      71  70  96 NE15G22   30.06R VSB 1
CORPUS CHRISTI PTSUNNY   79  66  64 S7        29.93S
DALLAS FTW     LGT RAIN  69  67  93 W8        29.93F
DEL RIO        SUNNY     76  65  68 SE12      29.97S
EL PASO        MOSUNNY   81  21  11 CALM      30.05S
HOUSTON INT    CLOUDY    78  69  73 S9        29.97R
LUBBOCK        MOSUNNY   68  60  75 N7        30.03F
SAN ANGELO     MOSUNNY   74  64  71 S3        30.00S
SAN ANTONIO    MOSUNNY   78  64  61 W13       30.00R
WACO           PTSUNNY   76  66  71 SW9       29.97R
WICHITA FALLS  NOT AVBL
$$
...OTHER LOCATIONS IN NEW MEXICO...

CITY           SKY/WX    TMP DP  RH WIND       PRES   REMARKS
ALAMAGORDO     MOSUNNY   77  23  13 CALM      30.07R
ALBUQUERQUE    PTSUNNY   71  36  27 N10       30.18R
CANNON AFB     SUNNY     68  55  62 N8        30.09S
CLOVIS         SUNNY     70  54  56 N9        30.07F
HOLLOMAN AFB   MOSUNNY   82  29  14 NW8       30.04S
ROSWELL        SUNNY     72  53  51 N5        30.06F
RUIDOSO        MOSUNNY   72  23  16 W5        30.24S
SANTA FE       MOSUNNY   65  34  31 N13       30.21S
TRUTH OR CONSE SUNNY     78  29  16 E6        30.12S
TUCUMCARI      SUNNY     70  51  51 CALM      30.09S
$$

USA.gov is the U.S. government's official web portal to all federal, state and local government web resources and services.